This is the latest recevied weather packets stored in our database for station/object EA4URC-10. If no packets are shown the sender has not sent any weather packets the latest 10 day(s).
| Time | Temp. | Humidity | Pressure | Rain* | Wind** | Luminosity | Snow |
|---|---|---|---|---|---|---|---|
| 1787843376 | 20.56° C | 37% | 1032 hPa | - | - | - | - |
| 1787841581 | 21.11° C | 39% | 1032 hPa | - | - | - | - |
| 1787839781 | 20.56° C | 41% | 1031.9 hPa | - | - | - | - |
| 1787837980 | 21.11° C | 41% | 1031.9 hPa | - | - | - | - |
| 1787836180 | 20.56° C | 44% | 1032 hPa | - | - | - | - |
| 1787834379 | 22.78° C | 42% | 1031.7 hPa | - | - | - | - |
| 1787832579 | 20.56° C | 44% | 1031.9 hPa | - | - | - | - |
| 1787830778 | 21.67° C | 42% | 1031.7 hPa | - | - | - | - |
| 1787828978 | 21.67° C | 46% | 1031.7 hPa | - | - | - | - |
| 1787827177 | 20° C | 52% | 1031.9 hPa | - | - | - | - |
| 1787825376 | 20° C | 48% | 1032 hPa | - | - | - | - |
| 1787823576 | 21.67° C | 46% | 1031.7 hPa | - | - | - | - |
| 1787821775 | 18.89° C | 62% | 1031.5 hPa | - | - | - | - |
| 1787819980 | 18.33° C | 76% | 1031.4 hPa | - | - | - | - |
| 1787818180 | 16.67° C | 85% | 1031.5 hPa | - | - | - | - |
| 1787816380 | 15.56° C | 91% | 1031.3 hPa | - | - | - | - |
| 1787814579 | 14.44° C | 100% | 1031.1 hPa | - | - | - | - |
| 1787812923 | 12.78° C | 100% | 1030.7 hPa | - | - | - | - |
| 1787812778 | 12.78° C | 100% | 1030.7 hPa | - | - | - | - |
| 1787810978 | 12.22° C | 100% | 1030.7 hPa | - | - | - | - |
| 1787809177 | 11.67° C | 100% | 1030.4 hPa | - | - | - | - |
| 1787807377 | 11.67° C | 95% | 1030.1 hPa | - | - | - | - |
| 1787805576 | 11.67° C | 89% | 1030 hPa | - | - | - | - |
| 1787803776 | 11.67° C | 82% | 1030.2 hPa | - | - | - | - |
| 1787801977 | 12.22° C | 76% | 1030.3 hPa | - | - | - | - |
* Rain since midnight (hover to see other rain measurements)
** Current wind speed in m/s (hover to see current wind gust speed)